H1 CPF 2 NER 2025 7 28 9 209 01 glonass141 H2 1908801 9141 44850 2025 7 28 0 0 0 2025 7 31 23 45 0 900 1 1 0 0 0 1 H9 10 0 60884 0.00000 0 18669235.860 -17311175.271 1457929.184 10 0 60884 900.00000 0 18523174.392 -17433431.854 -1775008.344 10 0 60884 1800.00000 0 18099852.400 -17253766.809 -4973421.031 10 0 60884 2700.00000 0 17447279.367 -16741505.285 -8075071.588 10 0 60884 3600.00000 0 16620220.370 -15877793.185 -11019571.220 10 0 60884 4500.00000 0 15677747.197 -14656616.326 -13749565.057 10 0 60884 5400.00000 0 14680622.164 -13085289.539 -16211859.560 10 0 60884 6300.00000 0 13688626.015 -11184393.158 -18358468.893 10 0 60884 7200.00000 0 12757943.792 -8987157.941 -20147558.901 10 0 60884 8100.00000 0 11938720.030 -6538322.909 -21544269.558 10 0 60884 9000.00000 0 11272887.339 -3892513.007 -22521399.347 10 0 60884 9900.00000 0 10792360.694 -1112203.890 -23059937.944 10 0 60884 10800.00000 0 10517673.948 1734641.414 -23149436.785 10 0 60884 11700.00000 0 10457116.185 4577165.432 -22788210.411 10 0 60884 12600.00000 0 10606404.067 7344330.584 -21983364.946 10 0 60884 13500.00000 0 10948903.539 9967641.787 -20750653.504 10 0 60884 14400.00000 0 11456390.776 12383764.017 -19114161.781 10 0 60884 15300.00000 0 12090319.447 14536925.959 -17105830.397 10 0 60884 16200.00000 0 12803539.822 16381010.175 -14764823.848 10 0 60884 17100.00000 0 13542396.220 17881243.441 -12136758.839 10 0 60884 18000.00000 0 14249113.275 19015417.906 -9272807.662 10 0 60884 18900.00000 0 14864369.450 19774593.584 -6228694.689 10 0 60884 19800.00000 0 15329948.419 20163254.585 -3063606.092 10 0 60884 20700.00000 0 15591355.861 20198914.537 160965.311 10 0 60884 21600.00000 0 15600290.916 19911189.785 3382417.150 10 0 60884 22500.00000 0 15316867.942 19340381.229 6538252.857 10 0 60884 23400.00000 0 14711494.978 18535626.074 9567291.466 10 0 60884 24300.00000 0 13766329.999 17552698.556 12410848.438 10 0 60884 25200.00000 0 12476253.937 16451552.939 15013864.995 10 0 60884 26100.00000 0 10849319.721 15293712.449 17325964.642 10 0 60884 27000.00000 0 8906658.498 14139613.704 19302417.375 10 0 60884 27900.00000 0 6681846.619 13046017.558 20904993.993 10 0 60884 28800.00000 0 4219759.166 12063594.072 22102695.189 10 0 60884 29700.00000 0 1574956.815 11234781.748 22872342.506 10 0 60884 30600.00000 0 -1190328.284 10592009.551 23199020.791 10 0 60884 31500.00000 0 -4008525.514 10156355.156 23076364.360 10 0 60884 32400.00000 0 -6809282.777 9936694.814 22506681.766 10 0 60884 33300.00000 0 -9522143.304 9929380.036 21500916.736 10 0 60884 34200.00000 0 -12079233.108 10118454.650 20078445.583 10 0 60884 35100.00000 0 -14417849.247 10476403.539 18266714.158 10 0 60884 36000.00000 0 -16482842.754 10965402.440 16100720.158 10 0 60884 36900.00000 0 -18228698.069 11539017.255 13622349.455 10 0 60884 37800.00000 0 -19621222.885 12144282.489 10879577.830 10 0 60884 38700.00000 0 -20638778.013 12724072.191 7925552.235 10 0 60884 39600.00000 0 -21272995.573 13219664.114 4817568.279 10 0 60884 40500.00000 0 -21528954.977 13573389.081 1615963.030 10 0 60884 41400.00000 0 -21424808.698 13731253.387 -1617055.803 10 0 60884 42300.00000 0 -20990872.998 13645422.589 -4818621.425 10 0 60884 43200.00000 0 -20268221.490 13276460.398 -7926436.263 10 0 60884 44100.00000 0 -19306840.615 12595226.312 -10879992.375 10 0 60884 45000.00000 0 -18163424.958 11584349.889 -13621759.157 10 0 60884 45900.00000 0 -16898905.827 10239217.302 -16098314.170 10 0 60884 46800.00000 0 -15575818.002 8568426.539 -18261393.983 10 0 60884 47700.00000 0 -14255616.587 6593690.196 -20068843.587 10 0 60884 48600.00000 0 -12996057.935 4349188.329 -21485445.152 10 0 60884 49500.00000 0 -11848755.833 1880397.230 -22483609.444 10 0 60884 50400.00000 0 -10857016.526 -757557.700 -23043916.145 10 0 60884 51300.00000 0 -10054044.068 -3501956.673 -23155492.464 10 0 60884 52200.00000 0 -9461591.582 -6284862.284 -22816222.835 10 0 60884 53100.00000 0 -9089114.872 -9035719.221 -22032785.812 10 0 60884 54000.00000 0 -8933463.349 -11684068.476 -20820517.857 10 0 60884 54900.00000 0 -8979120.343 -14162262.929 -19203107.069 10 0 60884 55800.00000 0 -9198981.518 -16408071.146 -17212123.304 10 0 60884 56700.00000 0 -9555637.262 -18367061.125 -14886394.338 10 0 60884 57600.00000 0 -10003103.628 -19994665.083 -12271240.757 10 0 60884 58500.00000 0 -10488927.455 -21257839.891 -9417585.082 10 0 60884 59400.00000 0 -10956575.559 -22136254.936 -6380953.060 10 0 60884 60300.00000 0 -11348006.052 -22622959.182 -3220387.185 10 0 60884 61200.00000 0 -11606312.339 -22724501.143 2705.777 10 0 60884 62100.00000 0 -11678327.508 -22460498.580 3225750.335 10 0 60884 63000.00000 0 -11517078.833 -21862677.784 6386217.238 10 0 60884 63900.00000 0 -11083988.684 -20973424.452 9422834.063 10 0 60884 64800.00000 0 -10350729.117 -19843908.413 12276767.930 10 0 60884 65700.00000 0 -9300652.210 -18531861.967 14892757.816 10 0 60884 66600.00000 0 -7929736.115 -17099105.620 17220175.063 10 0 60884 67500.00000 0 -6247007.132 -15608925.102 19213992.493 10 0 60884 68400.00000 0 -4274419.848 -14123409.123 20835644.465 10 0 60884 69300.00000 0 -2046199.827 -12700858.607 22053762.425 10 0 60884 70200.00000 0 392324.678 -11393374.630 22844772.929 10 0 60884 71100.00000 0 2986354.626 -10244724.683 23193347.640 10 0 60884 72000.00000 0 5673649.422 -9288575.159 23092697.372 10 0 60884 72900.00000 0 8386871.042 -8547162.790 22544704.928 10 0 60884 73800.00000 0 11056147.731 -8030459.741 21559894.175 10 0 60884 74700.00000 0 13611752.761 -7735866.748 20157235.490 10 0 60884 75600.00000 0 15986788.806 -7648447.097 18363790.509 10 0 60884 76500.00000 0 18119767.912 -7741691.882 16214201.854 10 0 60884 77400.00000 0 19956980.755 -7978785.010 13750036.348 10 0 60884 78300.00000 0 21454557.116 -8314315.546 11018992.990 10 0 60884 79200.00000 0 22580131.760 -8696366.057 8073989.664 10 0 60884 80100.00000 0 23314045.777 -9068889.518 4972145.202 10 0 60884 81000.00000 0 23650032.534 -9374274.776 1773675.747 10 0 60884 81900.00000 0 23595358.662 -9555992.040 -1459273.548 10 0 60884 82800.00000 0 23170413.366 -9561205.940 -4663838.711 10 0 60884 83700.00000 0 22407762.621 -9343244.547 -7777665.064 10 0 60884 84600.00000 0 21350707.552 -8863818.403 -10740128.640 10 0 60884 85500.00000 0 20051407.528 -8094893.882 -13493526.095 10 0 60885 0.00000 0 18568647.300 -7020139.801 -15984208.669 10 0 60885 900.00000 0 16965341.806 -5635883.492 -18163638.333 10 0 60885 1800.00000 0 15305886.391 -3951535.520 -19989341.285 10 0 60885 2700.00000 0 13653462.084 -1989461.478 -21425743.902 10 0 60885 3600.00000 0 12067411.969 215693.936 -22444870.947 10 0 60885 4500.00000 0 10600798.830 2618203.851 -23026893.478 10 0 60885 5400.00000 0 9298247.205 5162927.793 -23160515.509 10 0 60885 6300.00000 0 8194160.516 7787382.592 -22843191.993 10 0 60885 7200.00000 0 7311387.892 10424129.296 -22081174.151 10 0 60885 8100.00000 0 6660395.948 13003376.502 -20889381.613 10 0 60885 9000.00000 0 6238979.259 15455691.429 -19291104.289 10 0 60885 9900.00000 0 6032520.387 17714705.528 -17317540.251 10 0 60885 10800.00000 0 6014786.915 19719701.817 -15007179.132 10 0 60885 11700.00000 0 6149230.275 21417976.149 -12405043.571 10 0 60885 12600.00000 0 6390729.918 22766874.245 -9561804.084 10 0 60885 13500.00000 0 6687707.647 23735420.116 -6532785.210 10 0 60885 14400.00000 0 6984521.409 24305468.797 -3376882.854 10 0 60885 15300.00000 0 7224036.272 24472336.433 -155414.577 10 0 60885 16200.00000 0 7350263.028 24244882.834 3069074.310 10 0 60885 17100.00000 0 7310952.391 23645044.643 6234025.243 10 0 60885 18000.00000 0 7060034.904 22706840.223 9278077.657 10 0 60885 18900.00000 0 6559803.540 21474889.422 12142253.532 10 0 60885 19800.00000 0 5782747.069 20002511.334 14771092.601 10 0 60885 20700.00000 0 4712957.175 18349480.488 17113716.797 10 0 60885 21600.00000 0 3347050.232 16579535.658 19124804.251 10 0 60885 22500.00000 0 1694564.977 14757745.240 20765455.044 10 0 60885 23400.00000 0 -222180.994 12947838.698 22003933.197 10 0 60885 24300.00000 0 -2368770.651 11209614.421 22816271.711 10 0 60885 25200.00000 0 -4699875.691 9596530.878 23186730.063 10 0 60885 26100.00000 0 -7160905.412 8153580.171 23108096.073 10 0 60885 27000.00000 0 -9690049.512 6915531.278 22581826.773 10 0 60885 27900.00000 0 -12220631.836 5905615.084 21618025.569 10 0 60885 28800.00000 0 -14683679.235 5134705.204 20235255.715 10 0 60885 29700.00000 0 -17010600.642 4601028.290 18460192.869 10 0 60885 30600.00000 0 -19135866.576 4290415.740 16327122.279 10 0 60885 31500.00000 0 -20999578.699 4177086.470 13877288.967 10 0 60885 32400.00000 0 -22549823.096 4224928.279 11158112.049 10 0 60885 33300.00000 0 -23744709.269 4389224.450 8222277.026 10 0 60885 34200.00000 0 -24554009.343 4618753.360 5126722.527 10 0 60885 35100.00000 0 -24960328.185 4858172.819 1931540.367 10 0 60885 36000.00000 0 -24959754.466 5050588.399 -1301190.169 10 0 60885 36900.00000 0 -24561964.234 5140196.726 -4508611.086 10 0 60885 37800.00000 0 -23789771.641 5074891.037 -7628313.564 10 0 60885 38700.00000 0 -22678144.869 4808717.434 -10599560.362 10 0 60885 39600.00000 0 -21272728.070 4304076.254 -13364477.894 10 0 60885 40500.00000 0 -19627931.293 3533573.547 -15869193.712 10 0 60885 41400.00000 0 -17804668.841 2481442.426 -18064896.167 10 0 60885 42300.00000 0 -15867841.559 1144472.287 -19908794.606 10 0 60885 43200.00000 0 -13883669.436 -467595.120 -21364960.646 10 0 60885 44100.00000 0 -11916987.180 -2332221.084 -22405033.591 10 0 60885 45000.00000 0 -10028616.875 -4414771.585 -23008775.951 10 0 60885 45900.00000 0 -8272928.319 -6669736.747 -23164468.137 10 0 60885 46800.00000 0 -6695689.428 -9042417.694 -22869134.803 10 0 60885 47700.00000 0 -5332296.589 -11471010.551 -22128598.626 10 0 60885 48600.00000 0 -4206458.487 -13889000.559 -20957360.874 10 0 60885 49500.00000 0 -3329387.563 -16227766.233 -19378311.474 10 0 60885 50400.00000 0 -2699531.626 -18419284.606 -17422274.721 10 0 60885 51300.00000 0 -2302855.205 -20398824.419 -15127399.970 10 0 60885 52200.00000 0 -2113656.928 -22107514.715 -12538409.704 10 0 60885 53100.00000 0 -2095886.563 -23494681.581 -9705720.217 10 0 60885 54000.00000 0 -2204904.309 -24519855.677 -6684452.641 10 0 60885 54900.00000 0 -2389606.317 -25154367.207 -3533354.170 10 0 60885 55800.00000 0 -2594825.194 -25382462.417 -313651.112 10 0 60885 56700.00000 0 -2763902.839 -25201895.997 2912143.387 10 0 60885 57600.00000 0 -2841326.013 -24623975.844 6081443.386 10 0 60885 58500.00000 0 -2775312.770 -23673059.645 9132802.087 10 0 60885 59400.00000 0 -2520240.311 -22385525.649 12007098.209 10 0 60885 60300.00000 0 -2038811.854 -20808261.773 14648674.100 10 0 60885 61200.00000 0 -1303871.369 -18996737.050 17006404.090 10 0 60885 62100.00000 0 -299790.008 -17012736.407 19034673.309 10 0 60885 63000.00000 0 976633.949 -14921853.264 20694249.109 10 0 60885 63900.00000 0 2515799.544 -12790844.074 21953029.425 10 0 60885 64800.00000 0 4295468.190 -10684954.098 22786654.802 10 0 60885 65700.00000 0 6281463.329 -8665324.540 23178973.351 10 0 60885 66600.00000 0 8428876.768 -6786587.547 23122350.428 10 0 60885 67500.00000 0 10683733.026 -5094747.663 22617817.535 10 0 60885 68400.00000 0 12985044.291 -3625436.505 21675057.576 10 0 60885 69300.00000 0 15267172.376 -2402612.204 20312226.355 10 0 60885 70200.00000 0 17462401.312 -1437756.933 18555612.950 10 0 60885 71100.00000 0 19503615.175 -729605.507 16439144.356 10 0 60885 72000.00000 0 21326970.876 -264416.208 14003742.629 10 0 60885 72900.00000 0 22874455.312 -16772.617 11296545.535 10 0 60885 73800.00000 0 24096220.415 49116.964 8370004.396 10 0 60885 74700.00000 0 24952598.230 -22323.205 5280875.537 10 0 60885 75600.00000 0 25415710.974 -180149.118 2089124.037 10 0 60885 76500.00000 0 25470607.512 -369290.792 -1143239.342 10 0 60885 77400.00000 0 25115877.295 -533125.524 -4353365.405 10 0 60885 78300.00000 0 24363714.655 -616121.128 -7478794.098 10 0 60885 79200.00000 0 23239429.543 -566436.190 -10458677.782 10 0 60885 80100.00000 0 21780424.315 -338365.872 -13234975.389 10 0 60885 81000.00000 0 20034678.937 105471.929 -15753593.155 10 0 60885 81900.00000 0 18058807.973 792304.388 -17965448.620 10 0 60885 82800.00000 0 15915771.024 1737804.835 -19827436.176 10 0 60885 83700.00000 0 13672333.046 2945187.950 -21303274.575 10 0 60885 84600.00000 0 11396381.515 4404838.878 -22364219.334 10 0 60885 85500.00000 0 9154213.400 6094493.235 -22989625.832 10 0 60886 0.00000 0 7007906.162 7979961.325 -23167352.032 10 0 60886 900.00000 0 5012881.853 10016367.996 -22893993.149 10 0 60886 1800.00000 0 3215768.975 12149854.005 -22174943.759 10 0 60886 2700.00000 0 1652647.234 14319671.158 -21024286.843 10 0 60886 3600.00000 0 347750.585 16460580.991 -19464512.002 10 0 60886 4500.00000 0 -687319.559 18505457.404 -17526068.973 10 0 60886 5400.00000 0 -1453839.495 20387983.926 -15246765.617 10 0 60886 6300.00000 0 -1965658.407 22045332.546 -12671022.612 10 0 60886 7200.00000 0 -2248358.484 23420711.811 -9848999.978 10 0 60886 8100.00000 0 -2337917.453 24465677.600 -6835613.024 10 0 60886 9000.00000 0 -2278931.957 25142110.015 -3689457.491 10 0 60886 9900.00000 0 -2122478.558 25423774.096 -471665.434 10 0 60886 10800.00000 0 -1923704.245 25297399.684 2755285.348 10 0 60886 11700.00000 0 -1739249.397 24763236.117 5928784.807 10 0 60886 12600.00000 0 -1624612.881 23835059.573 8987303.206 10 0 60886 13500.00000 0 -1631570.972 22539633.784 11871579.231 10 0 60886 14400.00000 0 -1805759.130 20915647.645 14525760.942 10 0 60886 15300.00000 0 -2184518.442 19012174.844 16898477.974 10 0 60886 16200.00000 0 -2795097.142 16886720.239 18943825.141 10 0 60886 17100.00000 0 -3653282.580 14602934.437 20622239.481 10 0 60886 18000.00000 0 -4762520.982 12228091.396 21901254.940 10 0 60886 18900.00000 0 -6113562.041 9830433.157 22756121.347 10 0 60886 19800.00000 0 -7684643.776 7476490.920 23170276.762 10 0 60886 20700.00000 0 -9442210.854 5228492.349 23135664.922 10 0 60886 21600.00000 0 -11342137.703 3141961.286 22652892.094 10 0 60886 22500.00000 0 -13331407.076 1263608.005 21731220.385 10 0 60886 23400.00000 0 -15350175.884 -370403.607 20388397.236 10 0 60886 24300.00000 0 -17334144.089 -1735740.998 18650323.604 10 0 60886 25200.00000 0 -19217129.628 -2820687.297 16550566.090 10 0 60886 26100.00000 0 -20933743.394 -3626392.748 14129721.106 10 0 60886 27000.00000 0 -22422053.564 -4166582.891 11434641.941 10 0 60886 27900.00000 0 -23626128.430 -4466735.628 8517542.298 10 0 60886 28800.00000 0 -24498351.175 -4562761.512 5434992.531 10 0 60886 29700.00000 0 -25001409.016 -4499242.597 2246827.251 10 0 60886 30600.00000 0 -25109872.194 -4327304.030 -985015.019 10 0 60886 31500.00000 0 -24811295.106 -4102208.419 -4197697.496 10 0 60886 32400.00000 0 -24106791.788 -3880775.183 -7328712.324 10 0 60886 33300.00000 0 -23011060.004 -3718734.917 -10317104.675 10 0 60886 34200.00000 0 -21551851.586 -3668131.936 -13104668.944 10 0 60886 35100.00000 0 -19768910.206 -3774886.409 -15637092.663 10 0 60886 36000.00000 0 -17712420.455 -4076620.868 -17865024.775 10 0 60886 36900.00000 0 -15441033.039 -4600844.736 -19745046.463 10 0 60886 37800.00000 0 -13019548.840 -5363575.224 -21240524.816 10 0 60886 38700.00000 0 -10516359.140 -6368454.357 -22322332.170 10 0 60886 39600.00000 0 -8000749.520 -7606400.647 -22969416.755 10 0 60886 40500.00000 0 -5540180.538 -9055811.136 -23169213.472 10 0 60886 41400.00000 0 -3197659.075 -10683306.062 -22917886.871 10 0 60886 42300.00000 0 -1029310.177 -12444985.307 -22220401.863 10 0 60886 43200.00000 0 917749.527 -14288144.060 -21090421.132 10 0 60886 44100.00000 0 2607148.715 -16153375.684 -19550031.638 10 0 60886 45000.00000 0 4014537.070 -17976973.343 -17629306.038 10 0 60886 45900.00000 0 5128347.947 -19693529.393 -15365708.035 10 0 60886 46800.00000 0 5950017.935 -21238623.166 -12803353.778 10 0 60886 47700.00000 0 6493656.177 -22551484.141 -9992144.277 10 0 60886 48600.00000 0 6785179.611 -23577518.591 -6986786.321 10 0 60886 49500.00000 0 6860952.727 -24270593.709 -3845721.588 10 0 60886 50400.00000 0 6765991.257 -24594983.554 -629985.389 10 0 60886 51300.00000 0 6551807.398 -24526895.586 2597982.171 10 0 60886 52200.00000 0 6273989.027 -24055514.356 5775549.130 10 0 60886 53100.00000 0 5989616.168 -23183519.333 8841104.830 10 0 60886 54000.00000 0 5754624.507 -21927055.956 11735249.767 10 0 60886 54900.00000 0 5621227.422 -20315161.887 14401939.361 10 0 60886 55800.00000 0 5635505.196 -18388673.013 16789560.002 10 0 60886 56700.00000 0 5835262.633 -16198655.237 18851917.412 10 0 60886 57600.00000 0 6248244.806 -13804427.373 20549119.282 10 0 60886 58500.00000 0 6890785.523 -11271257.108 21848336.278 10 0 60886 59400.00000 0 7766945.019 -8667825.005 22724427.930 10 0 60886 60300.00000 0 8868173.141 -6063560.708 23160422.393 10 0 60886 61200.00000 0 10173512.601 -3525960.516 23147841.643 10 0 60886 62100.00000 0 11650334.727 -1117995.984 22686866.319 10 0 60886 63000.00000 0 13255578.278 1104280.553 21786337.106 10 0 60886 63900.00000 0 14937441.163 3093835.661 20463592.244 10 0 60886 64800.00000 0 16637456.157 4814373.761 18744143.538 10 0 60886 65700.00000 0 18292865.682 6241604.868 16661195.986 10 0 60886 66600.00000 0 19839197.871 7364008.924 14255018.964 10 0 60886 67500.00000 0 21212937.393 8183065.147 11572179.704 10 0 60886 68400.00000 0 22354179.905 8712936.872 8664652.499 10 0 60886 69300.00000 0 23209158.968 8979624.920 5588819.765 10 0 60886 70200.00000 0 23732538.992 9019624.940 2404383.462 10 0 60886 71100.00000 0 23889376.938 8878145.086 -826792.451 10 0 60886 72000.00000 0 23656668.921 8606959.274 -4041886.034 10 0 60886 72900.00000 0 23024415.030 8261987.014 -7178344.095 10 0 60886 73800.00000 0 21996155.817 7900702.772 -10175107.041 10 0 60886 74700.00000 0 20588956.180 7579485.427 -12973807.032 10 0 60886 75600.00000 0 18832835.866 7351021.194 -15519915.031 10 0 60886 76500.00000 0 16769669.303 7261871.335 -17763813.337 10 0 60886 77400.00000 0 14451600.194 7350309.034 -19661771.678 10 0 60886 78300.00000 0 11939036.885 7644518.384 -21176807.059 10 0 60886 79200.00000 0 9298312.371 8161232.894 -22279410.051 10 0 60886 80100.00000 0 6599106.952 8904872.184 -22948122.994 10 0 60886 81000.00000 0 3911741.500 9867214.158 -23169958.786 10 0 60886 81900.00000 0 1304454.542 11027617.120 -22940652.167 10 0 60886 82800.00000 0 -1159223.073 12353782.841 -22264738.875 10 0 60886 83700.00000 0 -3422886.592 13803028.561 -21155461.451 10 0 60886 84600.00000 0 -5439368.466 15324014.359 -19634503.978 10 0 60886 85500.00000 0 -7172454.869 16858852.934 -17731561.364 10 0 60887 0.00000 0 -8598137.109 18345512.631 -15483752.286 10 0 60887 900.00000 0 -9705347.951 19720413.037 -12934886.470 10 0 60887 1800.00000 0 -10496152.139 20921101.620 -10134604.251 10 0 60887 2700.00000 0 -10985387.833 21888901.203 -7137401.744 10 0 60887 3600.00000 0 -11199774.324 22571414.750 -4001564.137 10 0 60887 4500.00000 0 -11176526.626 22924782.909 -788027.369 10 0 60887 5400.00000 0 -10961537.165 22915599.437 2440808.945 10 0 60887 6300.00000 0 -10607203.036 22522404.368 5622293.837 10 0 60887 7200.00000 0 -10169991.801 21736692.687 8694738.698 10 0 60887 8100.00000 0 -9707849.475 20563396.764 11598608.825 10 0 60887 9000.00000 0 -9277560.504 19020822.864 14277669.956 10 0 60887 9900.00000 0 -8932171.058 17140044.822 16680068.105 10 0 60887 10800.00000 0 -8718583.910 14963780.439 18759322.635 10 0 60887 11700.00000 0 -8675425.547 12544797.359 20475214.438 10 0 60887 12600.00000 0 -8831274.574 9943914.376 21794553.201 10 0 60887 13500.00000 0 -9203325.229 7227680.478 22691810.150 10 0 60887 14400.00000 0 -9796541.735 4465826.779 23149605.154 10 0 60887 15300.00000 0 -10603338.917 1728595.651 23159039.614 10 0 60887 16200.00000 0 -11603802.870 -915943.889 22719869.221 10 0 60887 17100.00000 0 -12766443.275 -3404484.962 21840513.356 10 0 60887 18000.00000 0 -14049447.105 -5680870.044 20537900.577 10 0 60887 18900.00000 0 -15402382.737 -7698179.005 18837152.447 10 0 60887 19800.00000 0 -16768284.786 -9420432.382 16771110.659 10 0 60887 20700.00000 0 -18086033.868 -10823839.798 14379715.294 10 0 60887 21600.00000 0 -19292932.880 -11897541.924 11709244.775 10 0 60887 22500.00000 0 -20327372.645 -12643815.154 8811430.840 10 0 60887 23400.00000 0 -21131475.360 -13077730.280 5742464.511 10 0 60887 24300.00000 0 -21653604.560 -13226279.306 2561911.467 10 0 60887 25200.00000 0 -21850635.280 -13127006.878 -668442.631 10 0 60887 26100.00000 0 -21689887.555 -12826203.899 -3885794.427 10 0 60887 27000.00000 0 -21150640.229 -12376739.661 -7027549.064 10 0 60887 27900.00000 0 -20225159.435 -11835624.491 -10032545.730 10 0 60887 28800.00000 0 -18919196.544 -11261406.639 -12842257.704 10 0 60887 29700.00000 0 -17251932.802 -10711514.517 -15401942.458 10 0 60887 30600.00000 0 -15255371.427 -10239657.854 -17661718.365 10 0 60887 31500.00000 0 -12973201.471 -9893398.996 -19577545.965 10 0 60887 32400.00000 0 -10459180.244 -9711998.282 -21112093.895 10 0 60887 33300.00000 0 -7775101.552 -9724625.725 -22235472.051 10 0 60887 34200.00000 0 -4988434.569 -9949015.484 -22925817.298 10 0 60887 35100.00000 0 -2169732.018 -10390620.655 -23169720.280 10 0 60887 36000.00000 0 610084.069 -11042304.475 -22962485.047 10 0 60887 36900.00000 0 3282445.681 -11884581.149 -22308216.716 10 0 60887 37800.00000 0 5783757.762 -12886396.076 -21219735.784 10 0 60887 38700.00000 0 8057803.883 -14006412.335 -19718321.169 10 0 60887 39600.00000 0 10057838.905 -15194748.786 -17833287.450 10 0 60887 40500.00000 0 11748282.277 -16395096.037 -15601405.032 10 0 60887 41400.00000 0 13105942.615 -17547120.555 -13066175.035 10 0 60887 42300.00000 0 14120724.004 -18589055.042 -10276973.625 10 0 60887 43200.00000 0 14795786.420 -19460365.444 -7288083.033 10 0 60887 44100.00000 0 15147155.742 -20104381.821 -4157628.734 10 0 60887 45000.00000 0 15202801.902 -20470782.008 -946444.104 10 0 60887 45900.00000 0 15001226.133 -20517823.411 2283114.798 10 0 60887 46800.00000 0 14589618.697 -20214229.107 5468380.870 10 0 60887 47700.00000 0 14021666.325 -19540649.175 8547590.163 10 0 60887 48600.00000 0 13355102.943 -18490636.225 11461075.050 10 0 60887 49500.00000 0 12649107.599 -17071094.549 14152413.508 10 0 60887 50400.00000 0 11961659.449 -15302184.352 16569512.701 10 0 60887 51300.00000 0 11346960.939 -13216685.218 18665606.761 10 0 60887 52200.00000 0 10853037.021 -10858845.158 20400150.516 10 0 60887 53100.00000 0 10519610.534 -8282762.788 21739593.017 10 0 60887 54000.00000 0 10376342.122 -5550369.048 22658017.165 10 0 60887 54900.00000 0 10441507.759 -2729091.106 23137634.182 10 0 60887 55800.00000 0 10721168.844 110706.100 23169124.210 10 0 60887 56700.00000 0 11208869.475 2898396.325 22751817.035 10 0 60887 57600.00000 0 11885873.876 5565777.368 21893709.534 10 0 60887 58500.00000 0 12721934.726 8049655.721 20611319.179 10 0 60887 59400.00000 0 13676561.280 10294224.891 18929375.714 10 0 60887 60300.00000 0 14700735.475 12253139.974 16880355.814 10 0 60887 61200.00000 0 15739005.409 13891203.101 14503868.413 10 0 60887 62100.00000 0 16731869.660 15185590.125 11845901.163 10 0 60887 63000.00000 0 17618353.282 16126567.556 8957941.163 10 0 60887 63900.00000 0 18338667.732 16717669.623 5895985.855 10 0 60887 64800.00000 0 18836842.821 16975327.770 2719462.362 10 0 60887 65700.00000 0 19063219.329 16927967.823 -509924.279 10 0 60887 66600.00000 0 18976696.117 16614612.510 -3729391.628 10 0 60887 67500.00000 0 18546635.513 16083048.158 -6876305.438 10 0 60887 68400.00000 0 17754344.736 15387633.082 -9889405.830 10 0 60887 69300.00000 0 16594068.941 14586840.668 -12710009.177 10 0 60887 70200.00000 0 15073451.980 13740641.720 -15283161.240 10 0 60887 71100.00000 0 13213443.643 12907837.625 -17558718.028 10 0 60887 72000.00000 0 11047655.661 12143458.152 -19492332.250 10 0 60887 72900.00000 0 8621192.240 11496334.918 -21046325.367 10 0 60887 73800.00000 0 5989003.234 11006954.013 -22190427.629 10 0 60887 74700.00000 0 3213828.383 10705679.269 -22902371.323 10 0 60887 75600.00000 0 363818.249 10611421.704 -23168325.558 10 0 60887 76500.00000 0 -2490068.859 10730811.534 -22983164.206 10 0 60887 77400.00000 0 -5276785.364 11057907.671 -22350562.003 10 0 60887 78300.00000 0 -7927914.968 11574456.613 -21282917.300 10 0 60887 79200.00000 0 -10380282.039 12250689.336 -19801103.372 10 0 60887 80100.00000 0 -12578341.402 13046621.866 -17934053.598 10 0 60887 81000.00000 0 -14476249.539 13913803.907 -15718189.076 10 0 60887 81900.00000 0 -16039531.779 14797440.918 -13196700.339 10 0 60887 82800.00000 0 -17246277.125 15638799.314 -10418697.728 10 0 60887 83700.00000 0 -18087812.406 16377792.521 -7438247.541 10 0 60887 84600.00000 0 -18568829.447 16955638.173 -4313313.333 10 0 60887 85500.00000 0 -18706961.945 17317473.832 -1104623.603 99